{"data":{"norad_id":51632,"epoch":"2026-09-20T00:44:29.658912Z","epoch_age_seconds":66319,"freshness":"FRESH","line1":"1 51632U 22012L   26263.03089883 -.00000412  00000+0 -12165-2 0  9997","line2":"2 51632  87.8895  17.3940 0001695  90.1740 269.9581 13.10371619221737","mean_motion":13.10371619,"eccentricity":0.0001695,"inclination_deg":87.8895,"raan_deg":17.394,"arg_perigee_deg":90.174,"mean_anomaly_deg":269.9581,"bstar":-0.0012165,"rev_number":22173,"period_min":109.89248997158,"perigee_km":1220.433606796,"apogee_km":1223.0099589234,"semimajor_km":7599.8587828597,"source":"CELESTRAK","updated_at":"2026-09-20T09:00:44.709713Z"}}